HAIYANG-1B

Last updated on Mon Sep 21 2026 00:02:45 GMT+0000 (Coordinated Universal Time)

1 31113U 07010A 26263.51511787 .00000052 00000+0 35721-4 0 9999 2 31113 98.3617 241.7139 0012263 280.4376 79.5426 14.31046522 14271
UTC large
Height (km)
Speed (km/s)
/
Latitude / Longitude
Inclination (degrees)
Orbital Period (minutes)
Azimuth
Elevation
Range (km)
Doppler Factor

Next 0 passes for location: London (51.5072 / 0.1276)

No passes found over London.
HAIYANG-1B